THORAD AGENA D DEB, 42494

Orbit data source: Space-Track

THORAD AGENA D DEB, 42494 is space debris in SSO originally from a launch on Wed, 08 Apr 1970 UTC launched from the Air Force Western Test Range (AFWTR). Debris objects in space refer to the collection of defunct objects orbiting the Earth. Examples of debris include non-operational satellites, rocket bodies, and fragments generated from explosions, collisions, or faulty payload assembly.

Loading next visibility...
Identifier
42494, 1970-025QY
Orbit
SSO
Country
Flag of USUS
Related business
Manufacturer
Unknown
Mission
Spacecraft
Bus & Motor
Unknown
Mass
Unknown
Launch date (UTC)
1970-04-08 (56 years ago)
Launch vehicle
Unknown
Launch site
Air Force Western Test Range (AFWTR)
Object type
Payload
Rocket body
Debris
Shape & HBR
Unknown shape, 0.1 m
Radar Cross Section
Small (<0.1 m²)

Expand to show TLE details & history
Last TLE update: 1 day ago

TLE from 1 day ago
0 THORAD AGENA D DEB
1 42494U 70025QY  26125.45801183  .00000360  00000-0  52388-3 0  9991
2 42494  99.6965 206.3425 0097400 273.9166  85.0843 13.60265639605645
Epoch: 2026-05-05T10:59Z
TLE epoch observation values (Epoch: 2026-05-05T10:59:32.222Z)
Latitude
-0.00006°
Longitude
178.12568°
Altitude
1,032.038 km
Speed
7.339 km/s
True Right ascension
13h 45m 22s
True Declination
0° 00' 00"
Sunlit
Object was in full shadow at epoch
Visualization orbit readout
Latitude
Unknown
Longitude
Unknown
Altitude
Unknown
Speed
Unknown
Apparent Right ascension
Unknown
Apparent Declination
Unknown
Sunlit
N/A
Visualization observer readout
Local Sidereal Time
20:55:08
Azimuth
Unknown
Elevation
Unknown
Doppler factor
Unknown
Orbital elements
Apogee altitude
1,104.189 km
Perigee altitude
959.839 km
Semi-major axis
7,410.151 km
Eccentricity
0.00974
Inclination
99.6965°
RAAN
206.3425°
Arg. of periapsis
273.9166°
True anomaly
86.19741°
Mean anomaly
85.0843°
Eccentric anomaly
85.64075°
Mean motion
3.40253 °/min
Orbital period
105.8 mins
BSTAR
0.00052388
Loading maneuver chart data...
Computing Atmospheric mass density...

Documentation

Showing up to 5 results
|